Regional Weather Roundup
Issued by NWS

Home | Current Version | Previous Version | Graphics & Text | Print | Product List | Glossary On
Versions: 1 2 3 4 5 6 7 8 9 10 11 12 13 14 15 16 17 18 19 20 21 22 23 24 25 26 27 28 29 30 31 32 33 34 35 36 37 38 39 40 41 42 43 44 45 46 47 48 49 50
000
ASUS43 KFSD 251810
RWRSD

WEATHER ROUNDUP FOR SOUTH DAKOTA
NATIONAL WEATHER SERVICE SIOUX FALLS SD
100 PM CDT SAT OCT 25 2014

NOTE: "FAIR" INDICATES FEW OR NO CLOUDS BELOW 12,000 FEET WITH NO
SIGNIFICANT WEATHER AND/OR OBSTRUCTIONS TO VISIBILITY.


SDZ001>005-009-010-012>017-251900-
NORTHWEST AND NORTH CENTRAL SOUTH DAKOTA

CITY           SKY/WX    TMP DP  RH WIND       PRES   REMARKS
BUFFALO          N/A     63  30  28 SE15G22   30.02F
FAITH            N/A     62  30  29 SE16      30.13F
MOBRIDGE       SUNNY     61  31  32 S7        30.13F
$$

SDZ012>016-024>037-041>051-057-063-072>074-251900-
SOUTHWEST AND SOUTH CENTRAL SOUTH DAKOTA

CITY           SKY/WX    TMP DP  RH WIND       PRES   REMARKS
RAPID CTY ARPT SUNNY     62  30  29 S18       30.12F
PIERRE         SUNNY     63  31  30 VRB3      30.14F
CUSTER         SUNNY     58  32  37 SW5       30.17F
ELLSWORTH AFB  SUNNY     62  31  31 S18       30.10F
PHILIP         SUNNY     64  31  28 S10       30.13F
PINE RIDGE     SUNNY     63  38  39 E9        30.13F
SPEARFISH      FAIR      59  37  44 CALM      30.10F
WINNER         FAIR      66  27  23 E9        30.15F
$$

SDZ004>011-016>023-039-040-251900-
NORTHEAST SOUTH DAKOTA

CITY           SKY/WX    TMP DP  RH WIND       PRES   REMARKS
ABERDEEN       SUNNY     63  33  32 N6        30.16F
WATERTOWN      SUNNY     62  30  29 N13G22    30.14F
SISSETON         N/A     62  30  29 NW14G21   30.13S
$$

SDZ017-020-022-023-036>040-048>070-251900-
SOUTHEAST SOUTH DAKOTA

CITY           SKY/WX    TMP DP  RH WIND       PRES   REMARKS
SIOUX FALLS    SUNNY     65  36  34 NE7       30.14F
HURON          SUNNY     64  30  27 N6        30.15F
CHAMBERLAIN    SUNNY     65  31  27 E5        30.15F
MITCHELL       SUNNY     65  31  28 VRB6      30.16F
YANKTON        SUNNY     64  34  32 N3        30.15S
$$

ABBREVIATIONS USED IN REMARKS
   TC - TEMPERATURE IN CELSIUS
  WCI - WIND CHILL INDEX
   HX - HEAT INDEX
  VSB - VISIBILITY




USA.gov is the U.S. government's official web portal to all federal, state and local government web resources and services.